Skip Page Navigation
NASA JPL Caltech
NASA Logo - Jet Propulsion Laboratory + View the NASA Portal
+ Center for Near-Earth Object Studies
JPL Home Earth Solar System Stars & Galaxies Technology
JPL Solar System Dynamics
BODIES ORBITS EPHEMERIDES TOOLS PHYSICAL DATA DISCOVERY FAQ SITE MAP
JPL Small-Body Database Browser
Search: [ help ]  
134479 (1998 VJ52)
Classification: Main-belt Asteroid          SPK-ID: 2134479
Ephemeris | Orbit Diagram | Orbital Elements | Mission Design | Physical Parameters | Discovery Circumstances ]

[ show orbit diagram ]
Orbital Elements at Epoch 2459000.5 (2020-May-31.0) TDB
Reference: JPL 19 (heliocentric ecliptic J2000)
 Element Value Uncertainty (1-sigma)   Units 
e .1998583573389401 5.3312e-08  
a 2.621347224386724 1.3003e-08 au
q 2.097449074105804 1.411e-07 au
i 10.74985845051268 4.8858e-06 deg
node 88.33554236041083 2.8658e-05 deg
peri 288.3859078283572 3.076e-05 deg
M 52.58023209420382 1.0123e-05 deg
tp 2458774.084970444027
(2019-Oct-17.58497044)
4.351e-05 TDB
period 1550.191153476015
4.24
1.1535e-05
3.158e-08
d
yr
n .2322294248633577 1.728e-09 deg/d
Q 3.145245374667645 1.5602e-08 au
  Orbit Determination Parameters
   # obs. used (total)      710  
   data-arc span      7771 days (21.28 yr)  
   first obs. used      1998-10-19  
   last obs. used      2020-01-28  
   planetary ephem.      DE431  
   SB-pert. ephem.      SB431-N16  
   condition code      0  
   norm. resid. RMS      .55151  
   source      ORB  
   producer      Otto Matic  
   solution date      2020-Feb-24 07:29:34  

Additional Information
 Earth MOID = 1.12911 au 
 Jupiter MOID = 2.39365 au 
 T_jup = 3.351 
[ show covariance matrix ]

Ephemeris | Orbit Diagram | Orbital Elements | Mission Design | Physical Parameters | Discovery Circumstances ]

Physical Parameter Table
Parameter Symbol Value Units Sigma Reference Notes
absolute magnitude H 15.4   n/a MPO407048  

134479 (1998 VJ52)          Discovered 1998-Nov-13 by LINEAR at Socorro
Reference: 20060907/Numbers.arcLast Updated: 2006-09-10

Alternate Designations
 1998 VJ52 = 2000 EF147 
Ephemeris | Orbit Diagram | Orbital Elements | Mission Design | Physical Parameters | Discovery Circumstances ]
ABOUT SSD CREDITS/AWARDS PRIVACY/COPYRIGHT GLOSSARY LINKS
FirstGov 2020-Oct-28 04:24 UT
(server date/time)  
NASA Home Page
Site Manager:   Ryan S. Park
Webmaster  Alan B. Chamberlin